TimeCEST,TemperatureF,Dew PointF,Humidity,Sea Level PressureIn,VisibilityMPH,Wind Direction,Wind SpeedMPH,Gust SpeedMPH,PrecipitationIn,Events,Conditions,WindDirDegrees,DateUTC
2:00 AM,44,39,76,29.94,,East,2.2,,,,,90,2012-10-11 00:00:00
4:45 AM,41.0,39.2,93,29.92,-9999.0,SE,2.3,-,N/A,,Clear,130,2012-10-11 02:45:00
5:45 AM,39.2,37.4,93,29.95,-9999.0,South,2.3,-,N/A,,Clear,190,2012-10-11 03:45:00
6:15 AM,39.2,37.4,93,29.95,-9999.0,SW,1.2,-,N/A,,Clear,220,2012-10-11 04:15:00
6:45 AM,37.4,35.6,93,29.95,-9999.0,SSW,1.2,-,N/A,,Clear,210,2012-10-11 04:45:00
7:00 AM,-9999,-9999,N/A,-9999,-9999.0,Variable,3.5,-,N/A,,Dust Whirls,0,2012-10-11 05:00:00
7:15 AM,37.4,35.6,93,29.95,-9999.0,Calm,Calm,-,N/A,,Clear,0,2012-10-11 05:15:00
7:45 AM,37.4,35.6,93,29.95,-9999.0,ENE,2.3,-,N/A,,Clear,70,2012-10-11 05:45:00
8:00 AM,38,36,91,29.97,9,ENE,2.2,,,,Partly Cloudy,70,2012-10-11 06:00:00
8:15 AM,42.8,41.0,93,29.95,-9999.0,Calm,Calm,-,N/A,,Clear,0,2012-10-11 06:15:00
9:15 AM,48.2,42.8,82,29.98,-9999.0,SE,1.2,-,N/A,,Clear,130,2012-10-11 07:15:00
9:45 AM,50.0,42.8,76,29.98,-9999.0,SSE,2.3,-,N/A,,Clear,150,2012-10-11 07:45:00
10:00 AM,-9999,-9999,N/A,-9999,-9999.0,Variable,3.5,-,N/A,,Clear,0,2012-10-11 08:00:00
10:15 AM,51.8,42.8,71,29.98,-9999.0,South,2.3,-,N/A,,Clear,190,2012-10-11 08:15:00
10:45 AM,53.6,41.0,62,29.98,-9999.0,SW,2.3,-,N/A,,Clear,230,2012-10-11 08:45:00
11:45 AM,55.4,41.0,58,29.98,6.2,South,4.6,-,N/A,,Partly Cloudy,190,2012-10-11 09:45:00
12:15 PM,57.2,39.2,51,29.98,6.2,South,4.6,-,N/A,,Partly Cloudy,190,2012-10-11 10:15:00
12:45 PM,59.0,39.2,48,29.98,6.2,WSW,4.6,-,N/A,,Partly Cloudy,250,2012-10-11 10:45:00
1:00 PM,-9999,-9999,N/A,-9999,6.2,Variable,3.5,-,N/A,,Mostly Cloudy,0,2012-10-11 11:00:00
1:15 PM,59.0,37.4,45,29.95,6.2,South,4.6,-,N/A,,Partly Cloudy,180,2012-10-11 11:15:00
1:45 PM,59.0,37.4,45,29.95,6.2,WSW,3.5,-,N/A,,Partly Cloudy,250,2012-10-11 11:45:00
2:00 PM,59,38,33,29.95,19,WSW,4.5,,,,Partly Cloudy,250,2012-10-11 12:00:00
2:15 PM,59.0,37.4,45,29.95,6.2,SW,4.6,-,N/A,,Partly Cloudy,230,2012-10-11 12:15:00
2:45 PM,60.8,37.4,42,29.95,-9999.0,South,5.8,-,N/A,,Clear,170,2012-10-11 12:45:00
3:15 PM,60.8,37.4,42,29.95,-9999.0,WSW,3.5,-,N/A,,Clear,240,2012-10-11 13:15:00
3:45 PM,60.8,35.6,39,29.95,-9999.0,WSW,3.5,-,N/A,,Clear,240,2012-10-11 13:45:00
4:00 PM,-9999,-9999,N/A,-9999,-9999.0,Variable,3.5,-,N/A,,Clear,0,2012-10-11 14:00:00
4:15 PM,59.0,33.8,39,29.95,-9999.0,WSW,5.8,-,N/A,,Clear,240,2012-10-11 14:15:00
4:45 PM,57.2,35.6,44,29.95,-9999.0,West,5.8,-,N/A,,Clear,260,2012-10-11 14:45:00
5:45 PM,55.4,37.4,51,29.95,6.2,West,5.8,-,N/A,,Partly Cloudy,280,2012-10-11 15:45:00
6:15 PM,53.6,37.4,54,29.98,6.2,West,5.8,-,N/A,,Partly Cloudy,280,2012-10-11 16:15:00
6:45 PM,51.8,37.4,58,29.98,6.2,WNW,3.5,-,N/A,,Partly Cloudy,290,2012-10-11 16:45:00
7:15 PM,50.0,37.4,62,29.98,6.2,Calm,Calm,-,N/A,,Partly Cloudy,0,2012-10-11 17:15:00
7:45 PM,48.2,37.4,66,29.98,6.2,NNW,2.3,-,N/A,,Partly Cloudy,340,2012-10-11 17:45:00
8:00 PM,48,38,59,29.98,16,NNW,2.2,,,,Partly Cloudy,340,2012-10-11 18:00:00
8:21 PM,-9999,-9999,N/A,-9999,-9999.0,North,-9999.0,-,N/A,,Unknown,0,2012-10-11 18:21:00